Location: Newark
(34.9756°N, 138.3828°E)
Time: 23:24:33
(UTC+00:00)

N. Korean satellite - Pass Details

Date: 15 December 2019
Orbit: 454 x 507 km, 97.2° (Epoch: 21 January)

Event Time Altitude Azimuth Distance (km) Brightness Sun altitude
Rises 20:11:47 0° 19° (NNE) 2,507 10.2 -18.9°
Reaches altitude 10° 20:13:56 10° 27° (NNE) 1,618 9.3 -18.5°
Maximum altitude 20:17:13 40° 98° (E) 688 7.9 -17.9°
Drops below altitude 10° 20:20:27 10° 170° (S) 1,589 9.5 -17.2°
Sets 20:22:32 0° 178° (S) 2,454 10.4 -16.8°
